, FL

(GMT )
Crestview

Weather History for KEGI - September, 2013

Change the Weather History Date:

Wednesday, September 25, 2013

  Actual Average Record
Temperature  
Mean Temperature 78 °F -  
Max Temperature 88 °F - - ()
Min Temperature 69 °F - - ()
Cooling Degree Days 13    
Growing Degree Days 28 (Base 50)    
Moisture  
Dew Point 73 °F    
Average Humidity 90    
Maximum Humidity 100    
Minimum Humidity 59    
Precipitation  
Precipitation 0.00 in - - ()
Sea Level Pressure  
Sea Level Pressure 29.79 in    
Wind  
Wind Speed 4 mph (NNW)    
Max Wind Speed 7 mph    
Max Gust Speed -    
Visibility 8 miles    
Events Fog    
Averages and records for this station are not official NWS values.
T = Trace of Precipitation, MM = Missing Value Source: NWS Daily Summary

Daily Weather History Graph

Daily Weather History Graph

Search for Another Location

Airport or City:

Trip Planner

Search our weather history database for the weather conditions in past years. The results will help you decide how hot, cold, wet, or windy it might be!

Date:

Astronomy

Sep. 25, 2013 Rise Set
Actual Time 6:36 AM CDT 6:38 PM CDT
Civil Twilight 6:12 AM CDT 7:02 PM CDT
Nautical Twilight 5:44 AM CDT 7:30 PM CDT
Astronomical Twilight 5:16 AM CDT 7:58 PM CDT
Moon 11:05 PM CDT (9/25) 12:20 PM CDT (9/25)
Length of Visible Light 12h 50m
Length of Day
12h 02m
Waning Gibbous, 64% of the Moon is Illuminated
Sep 25
Waning Gibbous
Sep 26
Last Quarter
Oct 4
New
Oct 11
First Quarter
Oct 18
Full

Hourly Weather History & Observations

Time (CDT) Temp. Heat Index Dew Point Humidity Pressure Visibility Wind Dir Wind Speed Gust Speed Precip Events Conditions
12:58 AM 71.4 °F - 71.1 °F 99% 29.81 in 10.0 mi SE 4.6 mph - N/A   Scattered Clouds
1:58 AM 71.2 °F - 70.9 °F 99% 29.78 in 10.0 mi Calm Calm - N/A   Partly Cloudy
2:58 AM 71.8 °F - 71.4 °F 99% 29.78 in 10.0 mi SSE 4.6 mph - N/A   Scattered Clouds
3:41 AM 71.6 °F - 71.6 °F 100% 29.77 in 10.0 mi North 3.5 mph - N/A   Scattered Clouds
3:58 AM 71.1 °F - 71.1 °F 100% 29.78 in 10.0 mi ESE 1.2 mph - N/A   Mostly Cloudy
4:43 AM 71.6 °F - 71.6 °F 100% 29.77 in 1.8 mi NNW 4.6 mph - N/A   Scattered Clouds
4:48 AM 71.6 °F - 71.6 °F 100% 29.77 in 1.0 mi North 4.6 mph - N/A   Mist
4:53 AM 71.6 °F - 71.6 °F 100% 29.77 in 0.8 mi North 4.6 mph - N/A   Mist
4:58 AM 71.6 °F - 71.6 °F 100% 29.78 in 0.5 mi ENE 2.3 mph - N/A Fog Fog
5:08 AM 71.6 °F - 69.8 °F 94% 29.77 in 0.2 mi East 4.6 mph - N/A Fog Fog
5:23 AM 71.6 °F - 71.6 °F 100% 29.77 in 0.5 mi East 3.5 mph - N/A Fog Fog
5:58 AM 70.7 °F - 70.7 °F 100% 29.78 in 0.5 mi North 2.3 mph - N/A Fog Fog
6:33 AM 71.6 °F - 71.6 °F 100% 29.79 in 0.2 mi NNE 2.3 mph - N/A Fog Fog
6:58 AM 70.9 °F - 70.9 °F 100% 29.81 in 0.2 mi NE 3.5 mph - N/A Fog Fog
8:59 AM 72.7 °F - 72.7 °F 100% 29.82 in 10.0 mi NE 4.6 mph - N/A   Mostly Cloudy
9:30 AM 73.4 °F - 73.4 °F 100% 29.81 in 10.0 mi North 3.5 mph - N/A   Mostly Cloudy
9:48 AM 75.2 °F - 75.2 °F 100% 29.82 in 10.0 mi North 3.5 mph - N/A   Mostly Cloudy
9:55 AM 74.7 °F - 74.7 °F 100% 29.82 in 10.0 mi Variable 4.6 mph - N/A   Overcast
10:30 AM 75.2 °F - 75.2 °F 100% 29.82 in 10.0 mi Variable 3.5 mph - N/A   Overcast
10:55 AM 77.4 °F - 77.4 °F 100% 29.82 in 10.0 mi North 3.5 mph - N/A   Mostly Cloudy
11:04 AM 77.0 °F - 77.0 °F 100% 29.81 in 10.0 mi Variable 3.5 mph - N/A   Mostly Cloudy
11:28 AM 78.8 °F - 77.0 °F 94% 29.81 in 10.0 mi Calm Calm - N/A   Mostly Cloudy
11:45 AM 80.6 °F 83.9 °F 69.8 °F 70% 29.81 in 10.0 mi SSW 3.5 mph - N/A   Scattered Clouds
11:55 AM 82.0 °F 84.3 °F 66.6 °F 59% 29.80 in 10.0 mi NNW 4.6 mph - N/A   Scattered Clouds
12:55 PM 84.4 °F 93.9 °F 76.5 °F 77% 29.78 in 10.0 mi Variable 3.5 mph - N/A   Scattered Clouds
1:55 PM 86.2 °F 95.5 °F 75.2 °F 70% 29.76 in 10.0 mi WNW 6.9 mph - N/A   Scattered Clouds
1:59 PM 86.2 °F 95.5 °F 75.2 °F 70% 29.76 in 10.0 mi WNW 6.9 mph - N/A   Scattered Clouds
2:55 PM 85.6 °F 93.4 °F 74.1 °F 68% 29.74 in 10.0 mi NW 5.8 mph - N/A   Scattered Clouds
3:55 PM 86.9 °F 94.5 °F 73.2 °F 64% 29.75 in 10.0 mi Variable 5.8 mph - N/A   Scattered Clouds
4:55 PM 86.4 °F 93.8 °F 73.2 °F 65% 29.75 in 10.0 mi WNW 5.8 mph - N/A   Scattered Clouds
5:55 PM 84.7 °F 91.4 °F 73.0 °F 68% 29.76 in 10.0 mi NW 5.8 mph - N/A   Partly Cloudy
6:55 PM 79.9 °F - 72.3 °F 78% 29.78 in 10.0 mi WNW 4.6 mph - N/A   Partly Cloudy
7:55 PM 76.6 °F - 72.0 °F 85% 29.79 in 10.0 mi WNW 5.8 mph - N/A   Clear
8:55 PM 74.7 °F - 71.8 °F 91% 29.82 in 10.0 mi WNW 3.5 mph - N/A   Clear
9:55 PM 71.4 °F - 70.5 °F 97% 29.82 in 10.0 mi NW 2.3 mph - N/A   Clear
10:55 PM 71.2 °F - 70.3 °F 97% 29.82 in 10.0 mi NW 2.3 mph - N/A   Clear
11:55 PM 69.4 °F - 69.3 °F 99% 29.82 in 8.0 mi NW 1.2 mph - N/A   Clear